{"data":{"norad_id":64587,"epoch":"2026-05-25T04:50:10.080384Z","epoch_age_seconds":54657,"freshness":"FRESH","line1":"1 64587U 25135BM  26145.20150556  .00001723  00000+0  17614-3 0  9992","line2":"2 64587  97.7709 260.0104 0002977  80.5291 279.6264 14.91851216 50474","mean_motion":14.91851216,"eccentricity":0.0002977,"inclination_deg":97.7709,"raan_deg":260.0104,"arg_perigee_deg":80.5291,"mean_anomaly_deg":279.6264,"bstar":0.00017614,"rev_number":5047,"period_min":96.524370832433,"perigee_km":590.08840938,"apogee_km":594.23852627854,"semimajor_km":6970.3004678293,"source":"CELESTRAK","updated_at":"2026-05-25T13:38:04.626522Z"}}